#timestamp,LO_Frequency,Hit,StdDev 
1593752415.7,286047003.6,N
1593752435.5,286047003.3,N
1593752455.4,286047005.3,N
1593752475.2,286047004.3,N
1593752495.0,286047004.8,N
1593752495.9,286047004.8,N
1593752515.8,286047003.5,N
1593752535.6,286047003.9,N
1593752555.5,286047002.6,N
1593752575.3,286047002.3,N
1593752595.1,286047005.9,N
1593752615.9,286047003.3,N
1593752635.7,286047001.6,N
1593752655.5,286047001.3,N
1593752675.4,286047004.4,N
1593752695.2,286047002.7,N
1593752715.1,286047001.8,N
1593752716.0,286047001.8,N
1593752735.8,286047005.9,N
1593752755.6,286047005.6,N
1593752775.5,286047003.7,N
1593752795.3,286047003.9,N
1593752815.2,286047001.9,N
1593752835.9,286047002.0,N
1593752855.7,286047004.4,N
1593752875.6,286047004.4,N
1593752895.4,286047000.1,N
1593752915.2,286047002.4,N
1593752935.1,286047002.5,N
1593752936.0,286047002.5,N
1593752955.8,286047001.3,N
1593752975.7,286047002.5,N
1593752995.5,286047002.6,N
1593753015.3,286047002.6,N
1593753035.2,286047003.4,N
1593753055.0,286047003.5,N
1593753055.9,286047003.5,N
1593753075.8,286047001.6,N
1593753095.6,286047002.7,N
1593753115.4,286047001.4,N
1593753135.3,286047002.3,N
1593753155.1,286046999.9,N
1593753175.8,286046998.1,N
1593753195.7,286047001.3,N
1593753215.5,286047002.3,N
1593753235.4,286046998.2,N
1593753255.2,286046998.6,N
1593753275.0,286046998.9,N
1593753275.9,286046998.9,N
1593753295.8,286047000.7,N
1593753315.6,286046998.4,N
1593753335.5,286047001.5,N
1593753355.3,286047002.7,N
1593753375.1,286047000.7,N
1593753395.9,286047000.7,N
1593753415.7,286047000.5,N
1593753435.5,286046998.5,N
1593753455.4,286047001.2,N
1593753475.2,286047000.2,N
1593753495.1,286047000.2,N
1593753496.0,286047000.2,N
1593753515.8,286046998.1,N
1593753535.6,286047000.6,N
1593753555.5,286047001.0,N
1593753575.3,286046998.1,N
1593753595.2,286047001.0,N
1593753615.9,286047000.7,N
1593753635.7,286046998.1,N
1593753655.6,286047004.1,N
1593753675.4,286047002.0,N
1593753695.2,286047003.1,N
1593753715.1,286047005.6,Y
1593753716.0,286047005.6,P
1593753735.8,286047003.6,N
1593753755.7,286047001.6,N
1593753775.5,286047002.0,N
1593753795.3,286047001.8,N
1593753815.2,286047001.8,N
1593753835.0,286047004.3,N
1593753835.9,286047004.3,N
1593753855.8,286047003.9,N
1593753875.6,286047001.5,N
1593753895.4,286047007.3,Y
1593753915.3,286046999.7,P
1593753935.1,286046998.1,N
1593753955.9,286047002.3,N
1593753975.7,286047002.8,N
1593753995.5,286047000.5,N
1593754015.4,286047003.1,N
1593754035.2,286047005.9,Y
1593754055.1,286047002.4,P
1593754056.0,286047002.4,P
1593754075.8,286046998.2,P
1593754095.6,286046996.7,N
1593754115.5,286046997.3,N
1593754135.3,286046997.1,N
1593754155.1,286046997.3,N
1593754175.9,286046995.0,N
1593754195.7,286046997.8,N
1593754215.6,286046996.7,N
1593754235.4,286046997.7,N
1593754255.2,286046998.9,N
1593754275.1,286047000.7,N
1593754276.0,286047000.7,N
1593754295.8,286047001.7,N
1593754315.6,286047000.4,N
1593754335.5,286046998.2,N
1593754355.3,286046996.9,N
1593754375.2,286046996.5,N
1593754395.9,286046999.5,N
1593754415.7,286046997.8,N
1593754435.6,286046996.8,N
1593754455.4,286046997.0,N
1593754475.3,286046996.6,N
1593754495.1,286046997.3,N
1593754496.0,286046997.3,N
1593754515.8,286046998.0,N
1593754535.7,286046997.1,N
1593754555.5,286046993.7,Y
1593754575.3,286047001.1,P
1593754595.2,286046999.6,N
1593754615.0,286047000.2,N
1593754615.9,286047000.2,N
1593754635.8,286047000.7,N
1593754655.6,286046999.6,N
1593754675.4,286046996.8,Y
1593754695.3,286046996.9,P
1593754715.1,286046996.5,N
1593754735.9,286046997.0,N
1593754755.7,286046997.0,N
1593754775.5,286046999.6,N
1593754795.4,286046999.2,N
1593754815.2,286046996.8,N
1593754835.1,286046997.1,N
1593754836.0,286046997.1,N
1593754855.8,286046997.3,N
1593754875.6,286046995.1,Y
1593754895.5,286046999.2,P
1593754915.3,286046998.3,N
1593754935.1,286046997.4,P
1593754955.9,286047000.3,N
1593754975.7,286046999.1,N
1593754995.6,286046999.7,N
1593755015.4,286047002.4,N
1593755035.2,286047000.7,N
1593755055.1,286047000.0,N
1593755056.0,286047000.0,N
1593755075.8,286047001.0,N
1593755095.7,286047000.2,N
1593755115.5,286047002.1,N
1593755135.3,286047000.9,N
1593755155.2,286046999.7,N
1593755175.0,286047000.2,N
1593755175.9,286047000.2,N
1593755195.8,286047001.7,N
1593755215.6,286047002.1,N
1593755235.4,286046998.8,N
1593755255.3,286047000.9,N
1593755275.1,286046999.7,N
1593755295.8,286046998.1,N
1593755315.7,286047000.0,N
1593755335.5,286047000.9,N
1593755355.4,286047000.8,N
1593755375.2,286047000.3,N
1593755395.0,286047002.7,N
1593755395.9,286047002.7,N
1593755415.8,286046999.8,N
1593755435.6,286047000.7,N
1593755455.4,286046998.1,N
1593755475.3,286047001.1,N
1593755495.1,286047000.1,N
1593755515.9,286047003.9,Y
1593755535.7,286047002.2,P
1593755555.5,286047001.0,N
1593755575.4,286046999.9,N
1593755595.2,286047000.4,N
1593755615.1,286047000.8,N
1593755616.0,286047000.8,N
1593755635.8,286047000.2,N
1593755655.6,286047001.6,N
1593755675.5,286047002.3,Y
1593755695.3,286047000.0,P
1593755715.2,286047001.6,P
1593755735.9,286047003.4,P
1593755755.7,286047001.6,N
1593755775.6,286047002.5,N
1593755795.4,286047003.0,N
1593755815.2,286047006.0,Y
1593755835.1,286047001.3,P
1593755836.0,286047001.3,P
1593755855.8,286047006.7,P
1593755875.7,286047007.1,Y
1593755895.5,286047000.9,P
1593755915.3,286047002.8,N
1593755935.2,286047002.4,N
1593755955.0,286047003.2,Y
1593755955.9,286047003.2,P
1593755975.8,286047001.3,N
1593755995.6,286047003.7,P
